Location: Hurecourt
(47.9030°N, 6.0653°E)
Time: 04:44:56
(UTC+00:00)

Cosmos 1238 Rocket - Pass Details

Date: 14 July 2020
Orbit: 373 x 1030 km, 82.9° (Epoch: 06 August)

Event Time Altitude Azimuth Distance (km) Brightness Sun altitude
Exits shadow 00:49:53 33° 222° (SW) 1,281 4.2 -18.8°
Maximum altitude 00:51:58 53° 281° (W) 890 3.7 -18.7°
Drops below altitude 10° 00:56:25 10° 359° (N) 2,028 6.8 -18.5°
Sets 00:58:30 0° 5° (N) 2,839 7.9 -18.4°
